START_TIME,STEP,MOV.,E45,t_acc.,ALAR?,t_acc.,A12,t_acc.,A24,t_acc.
1979-07-27 15:00:25.550 ,1,0,42.,4.8,1568.,4.8,0.,4.8,1.,4.8
1979-07-27 15:00:30.350 ,1,0,42.,4.8,1600.,4.8,0.,4.8,0.,4.8
1979-07-27 15:00:35.150 ,1,0,49.,4.8,1504.,4.8,0.,4.8,0.,4.8
1979-07-27 15:00:39.950 ,1,0,37.,4.8,1536.,4.8,0.,4.8,0.,4.8
1979-07-27 15:00:44.750 ,1,0,40.,4.8,1536.,4.8,0.,4.8,0.,4.8
1979-07-27 15:00:49.550 ,2,0,46.,4.8,1600.,4.8,0.,4.8,0.,4.8
1979-07-27 15:00:54.350 ,2,0,37.,4.8,1440.,4.8,0.,4.8,0.,4.8
1979-07-27 15:00:59.150 ,2,0,38.,4.8,1568.,4.8,0.,4.8,0.,4.8
1979-07-27 15:01:03.950 ,2,0,39.,4.8,1440.,4.8,0.,4.8,0.,4.8
1979-07-27 15:01:08.750 ,2,0,40.,4.8,1536.,4.8,0.,4.8,0.,4.8
1979-07-27 15:01:13.550 ,2,0,29.,4.8,1568.,4.8,0.,4.8,0.,4.8
1979-07-27 15:01:18.350 ,2,0,26.,4.8,1568.,4.8,0.,4.8,0.,4.8
1979-07-27 15:01:23.150 ,2,0,35.,4.8,1600.,4.8,0.,4.8,0.,4.8
1979-07-27 15:01:27.950 ,2,0,41.,4.8,1440.,4.8,0.,4.8,0.,4.8
1979-07-27 15:01:32.750 ,2,0,34.,4.8,1440.,4.8,0.,4.8,0.,4.8
1979-07-27 15:01:37.550 ,3,0,42.,4.8,1504.,4.8,0.,4.8,0.,4.8
1979-07-27 15:01:42.350 ,3,0,27.,4.8,1504.,4.8,0.,4.8,0.,4.8
1979-07-27 15:01:47.150 ,3,0,25.,4.8,1600.,4.8,0.,4.8,0.,4.8
1979-07-27 15:01:51.950 ,3,0,35.,4.8,1536.,4.8,0.,4.8,0.,4.8
1979-07-27 15:01:56.750 ,3,0,37.,4.8,1632.,4.8,0.,4.8,0.,4.8
1979-07-27 15:02:01.550 ,3,0,28.,4.8,1568.,4.8,0.,4.8,0.,4.8
1979-07-27 15:02:06.350 ,3,0,27.,4.8,1504.,4.8,0.,4.8,0.,4.8
1979-07-27 15:02:11.150 ,3,0,26.,4.8,1536.,4.8,0.,4.8,0.,4.8
1979-07-27 15:02:15.950 ,3,0,23.,4.8,1472.,4.8,0.,4.8,0.,4.8
1979-07-27 15:02:20.750 ,3,0,28.,4.8,1536.,4.8,0.,4.8,0.,4.8
1979-07-27 15:02:25.550 ,4,0,23.,4.8,1504.,4.8,0.,4.8,0.,4.8
1979-07-27 15:02:30.350 ,4,0,28.,4.8,1600.,4.8,0.,4.8,0.,4.8
1979-07-27 15:02:35.150 ,4,0,31.,4.8,1536.,4.8,0.,4.8,0.,4.8
1979-07-27 15:02:39.950 ,4,0,37.,4.8,1568.,4.8,0.,4.8,0.,4.8
1979-07-27 15:02:44.750 ,4,0,40.,4.8,1728.,4.8,0.,4.8,0.,4.8
1979-07-27 15:02:49.550 ,4,0,41.,4.8,1696.,4.8,0.,4.8,0.,4.8
1979-07-27 15:02:54.350 ,4,0,44.,4.8,1664.,4.8,0.,4.8,0.,4.8
1979-07-27 15:02:59.150 ,4,0,42.,4.8,1664.,4.8,0.,4.8,0.,4.8
1979-07-27 15:03:03.950 ,4,0,49.,4.8,1664.,4.8,0.,4.8,0.,4.8
1979-07-27 15:03:08.750 ,4,0,37.,4.8,1600.,4.8,0.,4.8,0.,4.8
1979-07-27 15:03:13.550 ,5,0,37.,4.8,1696.,4.8,0.,4.8,0.,4.8
1979-07-27 15:03:18.350 ,5,0,41.,4.8,1696.,4.8,0.,4.8,0.,4.8
1979-07-27 15:03:23.150 ,5,0,51.,4.8,1728.,4.8,0.,4.8,0.,4.8
1979-07-27 15:03:27.950 ,5,0,40.,4.8,1664.,4.8,0.,4.8,0.,4.8
1979-07-27 15:03:32.750 ,5,0,37.,4.8,1728.,4.8,0.,4.8,0.,4.8
1979-07-27 15:03:37.550 ,5,0,47.,4.8,1536.,4.8,0.,4.8,0.,4.8
1979-07-27 15:03:42.350 ,5,0,39.,4.8,1632.,4.8,0.,4.8,0.,4.8
1979-07-27 15:03:47.150 ,5,0,51.,4.8,1600.,4.8,0.,4.8,0.,4.8
1979-07-27 15:03:51.950 ,5,0,45.,4.8,1664.,4.8,0.,4.8,0.,4.8
1979-07-27 15:03:56.750 ,5,0,38.,4.8,1664.,4.8,0.,4.8,0.,4.8
1979-07-27 15:04:01.550 ,6,0,39.,4.8,1536.,4.8,0.,4.8,0.,4.8
1979-07-27 15:04:06.350 ,6,0,32.,4.8,1536.,4.8,0.,4.8,0.,4.8
1979-07-27 15:04:11.150 ,6,0,38.,4.8,1472.,4.8,0.,4.8,0.,4.8
1979-07-27 15:04:15.950 ,6,0,37.,4.8,1472.,4.8,0.,4.8,0.,4.8
1979-07-27 15:04:20.750 ,6,0,36.,4.8,1536.,4.8,0.,4.8,0.,4.8
1979-07-27 15:04:25.550 ,6,0,40.,4.8,1472.,4.8,0.,4.8,0.,4.8
1979-07-27 15:04:30.350 ,6,0,38.,4.8,1568.,4.8,0.,4.8,0.,4.8
1979-07-27 15:04:35.150 ,6,0,49.,4.8,1504.,4.8,0.,4.8,0.,4.8
1979-07-27 15:04:39.950 ,6,0,40.,4.8,1472.,4.8,0.,4.8,0.,4.8
1979-07-27 15:04:44.750 ,6,0,50.,4.8,1568.,4.8,0.,4.8,0.,4.8
1979-07-27 15:04:49.550 ,7,0,47.,4.8,1440.,4.8,0.,4.8,0.,4.8
1979-07-27 15:04:54.350 ,7,0,38.,4.8,1344.,4.8,0.,4.8,0.,4.8
1979-07-27 15:04:59.150 ,7,0,42.,4.8,1280.,4.8,0.,4.8,0.,4.8
1979-07-27 15:05:03.950 ,7,0,39.,4.8,1440.,4.8,0.,4.8,0.,4.8
1979-07-27 15:05:08.750 ,7,0,38.,4.8,1408.,4.8,0.,4.8,0.,4.8
1979-07-27 15:05:13.550 ,7,0,31.,4.8,1376.,4.8,0.,4.8,0.,4.8
1979-07-27 15:05:18.350 ,7,0,45.,4.8,1472.,4.8,0.,4.8,0.,4.8
1979-07-27 15:05:23.150 ,7,0,49.,4.8,1376.,4.8,0.,4.8,0.,4.8
1979-07-27 15:05:27.950 ,7,0,42.,4.8,1472.,4.8,0.,4.8,0.,4.8
1979-07-27 15:05:32.750 ,7,0,37.,4.8,1472.,4.8,0.,4.8,0.,4.8
1979-07-27 15:05:37.550 ,7,0,34.,4.8,1472.,4.8,0.,4.8,0.,4.8
1979-07-27 15:05:42.350 ,7,0,38.,4.8,1472.,4.8,0.,4.8,0.,4.8
1979-07-27 15:05:47.150 ,7,0,38.,4.8,1408.,4.8,0.,4.8,0.,4.8
1979-07-27 15:05:51.950 ,7,0,38.,4.8,1376.,4.8,0.,4.8,0.,4.8
1979-07-27 15:05:56.750 ,7,0,45.,4.8,1344.,4.8,0.,4.8,0.,4.8
1979-07-27 15:06:01.550 ,7,0,42.,4.8,1408.,4.8,0.,4.8,0.,4.8
1979-07-27 15:06:06.350 ,7,0,35.,4.8,1472.,4.8,0.,4.8,0.,4.8
1979-07-27 15:06:11.150 ,7,0,,0,,0,,0,,0
1979-07-27 15:06:15.950 ,7,0,47.,4.8,1472.,4.8,0.,4.8,0.,4.8
1979-07-27 15:06:20.750 ,7,0,26.,4.8,1472.,4.8,0.,4.8,0.,4.8
1979-07-27 15:06:25.550 ,6,0,37.,4.8,1408.,4.8,0.,4.8,0.,4.8
1979-07-27 15:06:30.350 ,6,0,26.,4.8,1568.,4.8,0.,4.8,0.,4.8
1979-07-27 15:06:35.150 ,6,0,47.,4.8,1504.,4.8,0.,4.8,0.,4.8
1979-07-27 15:06:39.950 ,6,0,38.,4.8,1504.,4.8,0.,4.8,1.,4.8
1979-07-27 15:06:44.750 ,6,0,39.,4.8,1440.,4.8,0.,4.8,0.,4.8
1979-07-27 15:06:49.550 ,6,0,37.,4.8,1504.,4.8,0.,4.8,0.,4.8
1979-07-27 15:06:54.350 ,6,0,33.,4.8,1440.,4.8,0.,4.8,0.,4.8
1979-07-27 15:06:59.150 ,6,0,28.,4.8,1472.,4.8,0.,4.8,0.,4.8
1979-07-27 15:07:03.950 ,6,0,37.,4.8,1408.,4.8,0.,4.8,0.,4.8
1979-07-27 15:07:08.750 ,6,0,32.,4.8,1440.,4.8,0.,4.8,0.,4.8
1979-07-27 15:07:13.550 ,5,0,35.,4.8,1440.,4.8,0.,4.8,0.,4.8
1979-07-27 15:07:18.350 ,5,0,43.,4.8,1504.,4.8,0.,4.8,0.,4.8
1979-07-27 15:07:23.150 ,5,0,36.,4.8,1568.,4.8,0.,4.8,0.,4.8
1979-07-27 15:07:27.950 ,5,0,40.,4.8,1504.,4.8,0.,4.8,0.,4.8
1979-07-27 15:07:32.750 ,5,0,48.,4.8,1472.,4.8,0.,4.8,0.,4.8
1979-07-27 15:07:37.550 ,5,0,38.,4.8,1472.,4.8,0.,4.8,0.,4.8
1979-07-27 15:07:42.350 ,5,0,41.,4.8,1504.,4.8,0.,4.8,0.,4.8
1979-07-27 15:07:47.150 ,5,0,44.,4.8,1504.,4.8,0.,4.8,0.,4.8
1979-07-27 15:07:51.950 ,5,0,41.,4.8,1536.,4.8,0.,4.8,0.,4.8
1979-07-27 15:07:56.750 ,5,0,55.,4.8,1664.,4.8,0.,4.8,0.,4.8
1979-07-27 15:08:01.550 ,4,0,46.,4.8,1600.,4.8,0.,4.8,0.,4.8
1979-07-27 15:08:06.350 ,4,0,38.,4.8,1568.,4.8,0.,4.8,0.,4.8
1979-07-27 15:08:11.150 ,4,0,42.,4.8,1568.,4.8,0.,4.8,0.,4.8
1979-07-27 15:08:15.950 ,4,0,34.,4.8,1536.,4.8,0.,4.8,0.,4.8
1979-07-27 15:08:20.750 ,4,0,37.,4.8,1536.,4.8,0.,4.8,0.,4.8
1979-07-27 15:08:25.550 ,4,0,41.,4.8,1472.,4.8,0.,4.8,0.,4.8
1979-07-27 15:08:30.350 ,4,0,44.,4.8,1568.,4.8,0.,4.8,0.,4.8
1979-07-27 15:08:35.150 ,4,0,47.,4.8,1504.,4.8,1.,4.8,0.,4.8
1979-07-27 15:08:39.950 ,4,0,38.,4.8,1568.,4.8,0.,4.8,0.,4.8
1979-07-27 15:08:44.750 ,4,0,36.,4.8,1536.,4.8,0.,4.8,0.,4.8
1979-07-27 15:08:49.550 ,3,0,30.,4.8,1472.,4.8,0.,4.8,0.,4.8
1979-07-27 15:08:54.350 ,3,0,30.,4.8,1408.,4.8,0.,4.8,0.,4.8
1979-07-27 15:08:59.150 ,3,0,15.,4.8,1440.,4.8,0.,4.8,0.,4.8
1979-07-27 15:09:03.950 ,3,0,26.,4.8,1504.,4.8,0.,4.8,0.,4.8
1979-07-27 15:09:08.750 ,3,0,25.,4.8,1472.,4.8,0.,4.8,0.,4.8
1979-07-27 15:09:13.550 ,3,0,28.,4.8,1440.,4.8,0.,4.8,0.,4.8
1979-07-27 15:09:18.350 ,3,0,25.,4.8,1376.,4.8,0.,4.8,0.,4.8
1979-07-27 15:09:23.150 ,3,0,18.,4.8,1536.,4.8,0.,4.8,0.,4.8
1979-07-27 15:09:27.950 ,3,0,22.,4.8,1504.,4.8,0.,4.8,0.,4.8
1979-07-27 15:09:32.750 ,3,0,26.,4.8,1472.,4.8,0.,4.8,0.,4.8
1979-07-27 15:09:37.550 ,2,0,31.,4.8,1472.,4.8,0.,4.8,0.,4.8
1979-07-27 15:09:42.350 ,2,0,25.,4.8,1536.,4.8,0.,4.8,0.,4.8
1979-07-27 15:09:47.150 ,2,0,35.,4.8,1504.,4.8,0.,4.8,0.,4.8
1979-07-27 15:09:51.950 ,2,0,38.,4.8,1536.,4.8,0.,4.8,0.,4.8
1979-07-27 15:09:56.750 ,2,0,33.,4.8,1440.,4.8,0.,4.8,0.,4.8
1979-07-27 15:10:01.550 ,2,0,28.,4.8,1504.,4.8,0.,4.8,0.,4.8
1979-07-27 15:10:06.350 ,2,0,41.,4.8,1504.,4.8,0.,4.8,0.,4.8
1979-07-27 15:10:11.150 ,2,0,42.,4.8,1504.,4.8,0.,4.8,0.,4.8
1979-07-27 15:10:15.950 ,2,0,44.,4.8,1504.,4.8,0.,4.8,0.,4.8
1979-07-27 15:10:20.750 ,2,0,47.,4.8,1536.,4.8,0.,4.8,0.,4.8
1979-07-27 15:10:25.550 ,1,0,37.,4.8,1504.,4.8,0.,4.8,0.,4.8
1979-07-27 15:10:30.350 ,1,0,29.,4.8,1504.,4.8,0.,4.8,0.,4.8
1979-07-27 15:10:35.150 ,1,0,48.,4.8,1376.,4.8,0.,4.8,0.,4.8
1979-07-27 15:10:39.950 ,1,0,35.,4.8,1408.,4.8,0.,4.8,0.,4.8
1979-07-27 15:10:44.750 ,1,0,45.,4.8,1408.,4.8,0.,4.8,0.,4.8
1979-07-27 15:10:49.550 ,1,0,38.,4.8,1504.,4.8,0.,4.8,0.,4.8
1979-07-27 15:10:54.350 ,1,0,52.,4.8,1504.,4.8,0.,4.8,0.,4.8
1979-07-27 15:10:59.150 ,1,0,39.,4.8,1440.,4.8,0.,4.8,0.,4.8
1979-07-27 15:11:03.950 ,1,0,38.,4.8,1440.,4.8,0.,4.8,0.,4.8
1979-07-27 15:11:08.750 ,1,0,37.,4.8,1376.,4.8,0.,4.8,0.,4.8
1979-07-27 15:11:13.550 ,0,0,44.,4.8,1440.,4.8,0.,4.8,0.,4.8
1979-07-27 15:11:18.350 ,0,0,41.,4.8,1376.,4.8,0.,4.8,0.,4.8
1979-07-27 15:11:23.150 ,0,0,45.,4.8,1376.,4.8,0.,4.8,0.,4.8
1979-07-27 15:11:27.950 ,0,0,53.,4.8,1440.,4.8,0.,4.8,0.,4.8
1979-07-27 15:11:32.750 ,0,0,41.,4.8,1408.,4.8,0.,4.8,0.,4.8
1979-07-27 15:11:37.550 ,0,0,49.,4.8,1440.,4.8,0.,4.8,0.,4.8
1979-07-27 15:11:42.350 ,0,0,43.,4.8,1504.,4.8,0.,4.8,0.,4.8
1979-07-27 15:11:47.150 ,0,0,44.,4.8,1440.,4.8,0.,4.8,0.,4.8
1979-07-27 15:11:51.950 ,0,0,41.,4.8,1440.,4.8,0.,4.8,0.,4.8
1979-07-27 15:11:56.750 ,0,0,43.,4.8,1408.,4.8,0.,4.8,0.,4.8
1979-07-27 15:12:01.550 ,0,0,40.,4.8,1440.,4.8,0.,4.8,0.,4.8
1979-07-27 15:12:06.350 ,0,0,47.,4.8,1344.,4.8,0.,4.8,0.,4.8
1979-07-27 15:12:11.150 ,0,0,36.,4.8,1440.,4.8,0.,4.8,0.,4.8
1979-07-27 15:12:15.950 ,0,0,44.,4.8,1440.,4.8,0.,4.8,0.,4.8
1979-07-27 15:12:20.750 ,0,0,48.,4.8,1504.,4.8,0.,4.8,0.,4.8
1979-07-27 15:12:25.550 ,0,0,36.,4.8,1408.,4.8,0.,4.8,0.,4.8
1979-07-27 15:12:30.350 ,0,0,41.,4.8,1376.,4.8,0.,4.8,0.,4.8
1979-07-27 15:12:35.150 ,0,0,36.,4.8,1472.,4.8,0.,4.8,0.,4.8
1979-07-27 15:12:39.950 ,0,0,32.,4.8,1344.,4.8,0.,4.8,0.,4.8
1979-07-27 15:12:44.750 ,0,0,33.,4.8,1504.,4.8,0.,4.8,0.,4.8
1979-07-27 15:12:49.550 ,1,0,36.,4.8,1440.,4.8,0.,4.8,0.,4.8
1979-07-27 15:12:54.350 ,1,0,37.,4.8,1440.,4.8,0.,4.8,0.,4.8
1979-07-27 15:12:59.150 ,1,0,39.,4.8,1408.,4.8,0.,4.8,0.,4.8
1979-07-27 15:13:03.950 ,1,0,45.,4.8,1408.,4.8,0.,4.8,0.,4.8
1979-07-27 15:13:08.750 ,1,0,38.,4.8,1376.,4.8,0.,4.8,0.,4.8
1979-07-27 15:13:13.550 ,1,0,49.,4.8,1408.,4.8,0.,4.8,0.,4.8
1979-07-27 15:13:18.350 ,1,0,38.,4.8,1440.,4.8,0.,4.8,0.,4.8
1979-07-27 15:13:23.150 ,1,0,49.,4.8,1376.,4.8,0.,4.8,0.,4.8
1979-07-27 15:13:27.950 ,1,0,42.,4.8,1408.,4.8,0.,4.8,0.,4.8
1979-07-27 15:13:32.750 ,1,0,50.,4.8,1376.,4.8,0.,4.8,0.,4.8
1979-07-27 15:13:37.550 ,2,0,43.,4.8,1504.,4.8,0.,4.8,0.,4.8
1979-07-27 15:13:42.350 ,2,0,41.,4.8,1408.,4.8,0.,4.8,0.,4.8
1979-07-27 15:13:47.150 ,2,0,39.,4.8,1504.,4.8,0.,4.8,0.,4.8
1979-07-27 15:13:51.950 ,2,0,35.,4.8,1504.,4.8,0.,4.8,0.,4.8
1979-07-27 15:13:56.750 ,2,0,27.,4.8,1504.,4.8,0.,4.8,0.,4.8
1979-07-27 15:14:01.550 ,2,0,33.,4.8,1504.,4.8,0.,4.8,0.,4.8
1979-07-27 15:14:06.350 ,2,0,48.,4.8,1472.,4.8,0.,4.8,0.,4.8
1979-07-27 15:14:11.150 ,2,0,33.,4.8,1408.,4.8,0.,4.8,0.,4.8
1979-07-27 15:14:15.950 ,2,0,55.,4.8,1472.,4.8,0.,4.8,0.,4.8
1979-07-27 15:14:20.750 ,2,0,43.,4.8,1472.,4.8,0.,4.8,0.,4.8
1979-07-27 15:14:25.550 ,3,0,30.,4.8,1408.,4.8,0.,4.8,0.,4.8
1979-07-27 15:14:30.350 ,3,0,33.,4.8,1408.,4.8,0.,4.8,0.,4.8
1979-07-27 15:14:35.150 ,3,0,23.,4.8,1472.,4.8,0.,4.8,0.,4.8
1979-07-27 15:14:39.950 ,3,0,23.,4.8,1472.,4.8,0.,4.8,0.,4.8
1979-07-27 15:14:44.750 ,3,0,27.,4.8,1376.,4.8,0.,4.8,0.,4.8
1979-07-27 15:14:49.550 ,3,0,21.,4.8,1376.,4.8,0.,4.8,0.,4.8
1979-07-27 15:14:54.350 ,3,0,20.,4.8,1440.,4.8,0.,4.8,0.,4.8
1979-07-27 15:14:59.150 ,3,0,31.,4.8,1376.,4.8,0.,4.8,0.,4.8
1979-07-27 15:15:03.950 ,3,0,32.,4.8,1376.,4.8,0.,4.8,0.,4.8
1979-07-27 15:15:08.750 ,3,0,24.,4.8,1504.,4.8,0.,4.8,0.,4.8
1979-07-27 15:15:13.550 ,4,0,,0,,0,,0,,0
1979-07-27 15:15:18.350 ,4,0,32.,4.8,1440.,4.8,0.,4.8,0.,4.8
1979-07-27 15:15:23.150 ,4,0,39.,4.8,1568.,4.8,0.,4.8,0.,4.8
1979-07-27 15:15:27.950 ,4,0,32.,4.8,1440.,4.8,0.,4.8,0.,4.8
1979-07-27 15:15:32.750 ,4,0,50.,4.8,1472.,4.8,0.,4.8,0.,4.8
1979-07-27 15:15:37.550 ,4,0,53.,4.8,1472.,4.8,0.,4.8,0.,4.8
1979-07-27 15:15:42.350 ,4,0,40.,4.8,1504.,4.8,0.,4.8,0.,4.8
1979-07-27 15:15:47.150 ,4,0,38.,4.8,1504.,4.8,0.,4.8,0.,4.8
1979-07-27 15:15:51.950 ,4,0,40.,4.8,1440.,4.8,0.,4.8,0.,4.8
1979-07-27 15:15:56.750 ,4,0,45.,4.8,1408.,4.8,0.,4.8,0.,4.8
1979-07-27 15:16:01.550 ,5,0,43.,4.8,1536.,4.8,0.,4.8,0.,4.8
1979-07-27 15:16:06.350 ,5,0,30.,4.8,1504.,4.8,0.,4.8,0.,4.8
1979-07-27 15:16:11.150 ,5,0,40.,4.8,1568.,4.8,0.,4.8,0.,4.8
1979-07-27 15:16:15.950 ,5,0,45.,4.8,1472.,4.8,0.,4.8,0.,4.8
1979-07-27 15:16:20.750 ,5,0,35.,4.8,1440.,4.8,0.,4.8,0.,4.8
1979-07-27 15:16:25.550 ,5,0,44.,4.8,1536.,4.8,0.,4.8,0.,4.8
1979-07-27 15:16:30.350 ,5,0,46.,4.8,1472.,4.8,0.,4.8,0.,4.8
1979-07-27 15:16:35.150 ,5,0,54.,4.8,1440.,4.8,0.,4.8,0.,4.8
1979-07-27 15:16:39.950 ,5,0,39.,4.8,1472.,4.8,0.,4.8,0.,4.8
1979-07-27 15:16:44.750 ,5,0,56.,4.8,1440.,4.8,0.,4.8,0.,4.8
1979-07-27 15:16:49.550 ,6,0,53.,4.8,1536.,4.8,0.,4.8,0.,4.8
1979-07-27 15:16:54.350 ,6,0,50.,4.8,1504.,4.8,0.,4.8,0.,4.8
1979-07-27 15:16:59.150 ,6,0,52.,4.8,1472.,4.8,0.,4.8,0.,4.8
1979-07-27 15:17:03.950 ,6,0,42.,4.8,1440.,4.8,0.,4.8,0.,4.8
1979-07-27 15:17:08.750 ,6,0,37.,4.8,1376.,4.8,0.,4.8,0.,4.8
1979-07-27 15:17:13.550 ,6,0,36.,4.8,1440.,4.8,0.,4.8,0.,4.8
1979-07-27 15:17:18.350 ,6,0,47.,4.8,1472.,4.8,0.,4.8,0.,4.8
1979-07-27 15:17:23.150 ,6,0,45.,4.8,1408.,4.8,0.,4.8,0.,4.8
1979-07-27 15:17:27.950 ,6,0,43.,4.8,1440.,4.8,0.,4.8,0.,4.8
1979-07-27 15:17:32.750 ,6,0,52.,4.8,1408.,4.8,0.,4.8,0.,4.8
1979-07-27 15:17:37.550 ,7,0,30.,4.8,1440.,4.8,0.,4.8,0.,4.8
1979-07-27 15:17:42.350 ,7,0,37.,4.8,1440.,4.8,0.,4.8,0.,4.8
1979-07-27 15:17:47.150 ,7,0,52.,4.8,1344.,4.8,0.,4.8,0.,4.8
1979-07-27 15:17:51.950 ,7,0,34.,4.8,1312.,4.8,0.,4.8,0.,4.8
1979-07-27 15:17:56.750 ,7,0,39.,4.8,1376.,4.8,0.,4.8,0.,4.8
1979-07-27 15:18:01.550 ,7,0,35.,4.8,1440.,4.8,0.,4.8,0.,4.8
1979-07-27 15:18:06.350 ,7,0,28.,4.8,1472.,4.8,0.,4.8,0.,4.8
1979-07-27 15:18:11.150 ,7,0,38.,4.8,1440.,4.8,0.,4.8,0.,4.8
1979-07-27 15:18:15.950 ,7,0,50.,4.8,1376.,4.8,0.,4.8,0.,4.8
1979-07-27 15:18:20.750 ,7,0,39.,4.8,1408.,4.8,0.,4.8,0.,4.8
1979-07-27 15:18:25.550 ,7,0,32.,4.8,1280.,4.8,0.,4.8,0.,4.8
1979-07-27 15:18:30.350 ,7,0,33.,4.8,1376.,4.8,0.,4.8,0.,4.8
1979-07-27 15:18:35.150 ,7,0,43.,4.8,1408.,4.8,0.,4.8,0.,4.8
1979-07-27 15:18:39.950 ,7,0,48.,4.8,1408.,4.8,0.,4.8,0.,4.8
1979-07-27 15:18:44.750 ,7,0,33.,4.8,1440.,4.8,0.,4.8,0.,4.8
1979-07-27 15:18:49.550 ,7,0,40.,4.8,1344.,4.8,0.,4.8,0.,4.8
1979-07-27 15:18:54.350 ,7,0,41.,4.8,1440.,4.8,0.,4.8,0.,4.8
1979-07-27 15:18:59.150 ,7,0,44.,4.8,1408.,4.8,0.,4.8,0.,4.8
1979-07-27 15:19:03.950 ,7,0,39.,4.8,1344.,4.8,0.,4.8,0.,4.8
1979-07-27 15:19:08.750 ,7,0,36.,4.8,1440.,4.8,0.,4.8,0.,4.8
1979-07-27 15:19:13.550 ,6,0,36.,4.8,1344.,4.8,0.,4.8,0.,4.8
1979-07-27 15:19:18.350 ,6,0,51.,4.8,1408.,4.8,0.,4.8,0.,4.8
1979-07-27 15:19:23.150 ,6,0,40.,4.8,1472.,4.8,0.,4.8,0.,4.8
1979-07-27 15:19:27.950 ,6,0,42.,4.8,1536.,4.8,0.,4.8,0.,4.8
1979-07-27 15:19:32.750 ,6,0,44.,4.8,1440.,4.8,0.,4.8,0.,4.8
1979-07-27 15:19:37.550 ,6,0,46.,4.8,1408.,4.8,0.,4.8,0.,4.8
1979-07-27 15:19:42.350 ,6,0,42.,4.8,1312.,4.8,0.,4.8,0.,4.8
1979-07-27 15:19:47.150 ,6,0,50.,4.8,1376.,4.8,0.,4.8,0.,4.8
1979-07-27 15:19:51.950 ,6,0,43.,4.8,1504.,4.8,0.,4.8,0.,4.8
1979-07-27 15:19:56.750 ,6,0,48.,4.8,1440.,4.8,0.,4.8,0.,4.8
1979-07-27 15:20:01.550 ,5,0,46.,4.8,1504.,4.8,0.,4.8,0.,4.8
1979-07-27 15:20:06.350 ,5,0,44.,4.8,1536.,4.8,0.,4.8,0.,4.8
1979-07-27 15:20:11.150 ,5,0,42.,4.8,1568.,4.8,0.,4.8,0.,4.8
1979-07-27 15:20:15.950 ,5,0,47.,4.8,1600.,4.8,0.,4.8,0.,4.8
1979-07-27 15:20:20.750 ,5,0,36.,4.8,1728.,4.8,0.,4.8,0.,4.8
1979-07-27 15:20:25.550 ,5,0,54.,4.8,1600.,4.8,0.,4.8,0.,4.8
1979-07-27 15:20:30.350 ,5,0,42.,4.8,1536.,4.8,0.,4.8,0.,4.8
1979-07-27 15:20:35.150 ,5,0,43.,4.8,1536.,4.8,0.,4.8,0.,4.8
1979-07-27 15:20:39.950 ,5,0,51.,4.8,1536.,4.8,0.,4.8,0.,4.8
1979-07-27 15:20:44.750 ,5,0,33.,4.8,1632.,4.8,0.,4.8,0.,4.8
1979-07-27 15:20:49.550 ,4,0,55.,4.8,1504.,4.8,0.,4.8,0.,4.8
1979-07-27 15:20:54.350 ,4,0,31.,4.8,1536.,4.8,0.,4.8,0.,4.8
1979-07-27 15:20:59.150 ,4,0,33.,4.8,1472.,4.8,0.,4.8,0.,4.8
1979-07-27 15:21:03.950 ,4,0,52.,4.8,1504.,4.8,0.,4.8,0.,4.8
1979-07-27 15:21:08.750 ,4,0,60.,4.8,1472.,4.8,0.,4.8,0.,4.8
1979-07-27 15:21:13.550 ,4,0,41.,4.8,1504.,4.8,0.,4.8,0.,4.8
1979-07-27 15:21:18.350 ,4,0,35.,4.8,1504.,4.8,0.,4.8,0.,4.8
1979-07-27 15:21:23.150 ,4,0,32.,4.8,1568.,4.8,0.,4.8,1.,4.8
1979-07-27 15:21:27.950 ,4,0,39.,4.8,1504.,4.8,0.,4.8,0.,4.8
1979-07-27 15:21:32.750 ,4,0,40.,4.8,1472.,4.8,0.,4.8,0.,4.8
1979-07-27 15:21:37.550 ,3,0,38.,4.8,1440.,4.8,0.,4.8,0.,4.8
1979-07-27 15:21:42.350 ,3,0,32.,4.8,1440.,4.8,0.,4.8,0.,4.8
1979-07-27 15:21:47.150 ,3,0,24.,4.8,1376.,4.8,0.,4.8,0.,4.8
1979-07-27 15:21:51.950 ,3,0,35.,4.8,1344.,4.8,0.,4.8,0.,4.8
1979-07-27 15:21:56.750 ,3,0,19.,4.8,1344.,4.8,0.,4.8,0.,4.8
1979-07-27 15:22:01.550 ,3,0,38.,4.8,1280.,4.8,0.,4.8,0.,4.8
1979-07-27 15:22:06.350 ,3,0,16.,4.8,1344.,4.8,0.,4.8,0.,4.8
1979-07-27 15:22:11.150 ,3,0,26.,4.8,1344.,4.8,0.,4.8,0.,4.8
1979-07-27 15:22:15.950 ,3,0,22.,4.8,1376.,4.8,0.,4.8,0.,4.8
1979-07-27 15:22:20.750 ,3,0,24.,4.8,1408.,4.8,0.,4.8,0.,4.8
1979-07-27 15:22:25.550 ,2,0,20.,4.8,1536.,4.8,0.,4.8,0.,4.8
1979-07-27 15:22:30.350 ,2,0,28.,4.8,1376.,4.8,0.,4.8,0.,4.8
1979-07-27 15:22:35.150 ,2,0,29.,4.8,1408.,4.8,0.,4.8,0.,4.8
1979-07-27 15:22:39.950 ,2,0,43.,4.8,1376.,4.8,0.,4.8,0.,4.8
1979-07-27 15:22:44.750 ,2,0,43.,4.8,1376.,4.8,0.,4.8,0.,4.8
1979-07-27 15:22:49.550 ,2,0,31.,4.8,1376.,4.8,0.,4.8,0.,4.8
1979-07-27 15:22:54.350 ,2,0,34.,4.8,1376.,4.8,0.,4.8,0.,4.8
1979-07-27 15:22:59.150 ,2,0,43.,4.8,1440.,4.8,0.,4.8,0.,4.8
1979-07-27 15:23:03.950 ,2,0,38.,4.8,1376.,4.8,0.,4.8,0.,4.8
1979-07-27 15:23:08.750 ,2,0,36.,4.8,1472.,4.8,0.,4.8,0.,4.8
1979-07-27 15:23:13.550 ,1,0,37.,4.8,1504.,4.8,0.,4.8,0.,4.8
1979-07-27 15:23:18.350 ,1,0,38.,4.8,1440.,4.8,0.,4.8,0.,4.8
1979-07-27 15:23:23.150 ,1,0,35.,4.8,1440.,4.8,0.,4.8,0.,4.8
1979-07-27 15:23:27.950 ,1,0,40.,4.8,1472.,4.8,0.,4.8,0.,4.8
1979-07-27 15:23:32.750 ,1,0,50.,4.8,1440.,4.8,0.,4.8,0.,4.8
1979-07-27 15:23:37.550 ,1,0,40.,4.8,1376.,4.8,0.,4.8,0.,4.8
1979-07-27 15:23:42.350 ,1,0,35.,4.8,1472.,4.8,0.,4.8,0.,4.8
1979-07-27 15:23:47.150 ,1,0,42.,4.8,1376.,4.8,0.,4.8,0.,4.8
1979-07-27 15:23:51.950 ,1,0,31.,4.8,1376.,4.8,0.,4.8,0.,4.8
1979-07-27 15:23:56.750 ,1,0,39.,4.8,1472.,4.8,0.,4.8,0.,4.8
1979-07-27 15:24:01.550 ,0,0,42.,4.8,1408.,4.8,0.,4.8,0.,4.8
1979-07-27 15:24:06.350 ,0,0,38.,4.8,1536.,4.8,0.,4.8,0.,4.8
1979-07-27 15:24:11.150 ,0,0,44.,4.8,1408.,4.8,0.,4.8,0.,4.8
1979-07-27 15:24:15.950 ,0,0,32.,4.8,1376.,4.8,0.,4.8,0.,4.8
1979-07-27 15:24:20.750 ,0,0,44.,4.8,1440.,4.8,0.,4.8,0.,4.8
1979-07-27 15:24:25.550 ,0,0,34.,4.8,1344.,4.8,0.,4.8,0.,4.8
1979-07-27 15:24:30.350 ,0,0,43.,4.8,1376.,4.8,0.,4.8,0.,4.8
1979-07-27 15:24:35.150 ,0,0,37.,4.8,1408.,4.8,0.,4.8,0.,4.8
1979-07-27 15:24:39.950 ,0,0,32.,4.8,1408.,4.8,0.,4.8,0.,4.8
1979-07-27 15:24:44.750 ,0,0,41.,4.8,1344.,4.8,0.,4.8,0.,4.8
1979-07-27 15:24:49.550 ,0,0,37.,4.8,1408.,4.8,0.,4.8,0.,4.8
1979-07-27 15:24:54.350 ,0,0,32.,4.8,1376.,4.8,0.,4.8,0.,4.8
1979-07-27 15:24:59.150 ,0,0,25.,4.8,1472.,4.8,0.,4.8,0.,4.8
1979-07-27 15:25:03.950 ,0,0,53.,4.8,1440.,4.8,0.,4.8,0.,4.8
1979-07-27 15:25:08.750 ,0,0,66.,4.8,1440.,4.8,0.,4.8,0.,4.8
1979-07-27 15:25:13.550 ,0,0,43.,4.8,1344.,4.8,0.,4.8,0.,4.8
1979-07-27 15:25:18.350 ,0,0,51.,4.8,1376.,4.8,0.,4.8,0.,4.8
1979-07-27 15:25:23.150 ,0,0,34.,4.8,1376.,4.8,0.,4.8,0.,4.8
1979-07-27 15:25:27.950 ,0,0,33.,4.8,1408.,4.8,0.,4.8,0.,4.8
1979-07-27 15:25:32.750 ,0,0,39.,4.8,1344.,4.8,0.,4.8,0.,4.8
1979-07-27 15:25:37.550 ,1,0,40.,4.8,1344.,4.8,0.,4.8,0.,4.8
1979-07-27 15:25:42.350 ,1,0,36.,4.8,1216.,4.8,0.,4.8,0.,4.8
1979-07-27 15:25:47.150 ,1,0,39.,4.8,1280.,4.8,0.,4.8,0.,4.8
1979-07-27 15:25:51.950 ,1,0,41.,4.8,1280.,4.8,0.,4.8,0.,4.8
1979-07-27 15:25:56.750 ,1,0,29.,4.8,1184.,4.8,0.,4.8,0.,4.8
1979-07-27 15:26:01.550 ,1,0,36.,4.8,1280.,4.8,0.,4.8,0.,4.8
1979-07-27 15:26:06.350 ,1,0,36.,4.8,1184.,4.8,0.,4.8,0.,4.8
1979-07-27 15:26:11.150 ,1,0,37.,4.8,1344.,4.8,0.,4.8,0.,4.8
1979-07-27 15:26:15.950 ,1,0,33.,4.8,1248.,4.8,0.,4.8,0.,4.8
1979-07-27 15:26:20.750 ,1,0,38.,4.8,1312.,4.8,0.,4.8,0.,4.8
1979-07-27 15:26:25.550 ,2,0,40.,4.8,1280.,4.8,0.,4.8,0.,4.8
1979-07-27 15:26:30.350 ,2,0,37.,4.8,1376.,4.8,0.,4.8,0.,4.8
1979-07-27 15:26:35.150 ,2,0,41.,4.8,1312.,4.8,0.,4.8,0.,4.8
1979-07-27 15:26:39.950 ,2,0,38.,4.8,1312.,4.8,0.,4.8,0.,4.8
1979-07-27 15:26:44.750 ,2,0,28.,4.8,1312.,4.8,0.,4.8,0.,4.8
1979-07-27 15:26:49.550 ,2,0,42.,4.8,1376.,4.8,0.,4.8,0.,4.8
1979-07-27 15:26:54.350 ,2,0,51.,4.8,1248.,4.8,0.,4.8,0.,4.8
1979-07-27 15:26:59.150 ,2,0,35.,4.8,1280.,4.8,0.,4.8,0.,4.8
1979-07-27 15:27:03.950 ,2,0,37.,4.8,1312.,4.8,0.,4.8,0.,4.8
1979-07-27 15:27:08.750 ,2,0,34.,4.8,1312.,4.8,0.,4.8,0.,4.8
1979-07-27 15:27:13.550 ,3,0,31.,4.8,1312.,4.8,0.,4.8,0.,4.8
1979-07-27 15:27:18.350 ,3,0,27.,4.8,1312.,4.8,0.,4.8,0.,4.8
1979-07-27 15:27:23.150 ,3,0,20.,4.8,1344.,4.8,0.,4.8,0.,4.8
1979-07-27 15:27:27.950 ,3,0,14.,4.8,1280.,4.8,0.,4.8,0.,4.8
1979-07-27 15:27:32.750 ,3,0,18.,4.8,1280.,4.8,0.,4.8,0.,4.8
1979-07-27 15:27:37.550 ,3,0,18.,4.8,1280.,4.8,0.,4.8,0.,4.8
1979-07-27 15:27:42.350 ,3,0,18.,4.8,1248.,4.8,0.,4.8,0.,4.8
1979-07-27 15:27:47.150 ,3,0,24.,4.8,1280.,4.8,0.,4.8,0.,4.8
1979-07-27 15:27:51.950 ,3,0,25.,4.8,1344.,4.8,0.,4.8,0.,4.8
1979-07-27 15:27:56.750 ,3,0,28.,4.8,1376.,4.8,0.,4.8,0.,4.8
1979-07-27 15:28:01.550 ,4,0,18.,4.8,1312.,4.8,0.,4.8,0.,4.8
1979-07-27 15:28:06.350 ,4,0,24.,4.8,1248.,4.8,0.,4.8,0.,4.8
1979-07-27 15:28:11.150 ,4,0,50.,4.8,1312.,4.8,0.,4.8,0.,4.8
1979-07-27 15:28:15.950 ,4,0,36.,4.8,1376.,4.8,0.,4.8,0.,4.8
1979-07-27 15:28:20.750 ,4,0,39.,4.8,1344.,4.8,0.,4.8,0.,4.8
1979-07-27 15:28:25.550 ,4,0,36.,4.8,1376.,4.8,0.,4.8,0.,4.8
1979-07-27 15:28:30.350 ,4,0,32.,4.8,1376.,4.8,0.,4.8,0.,4.8
1979-07-27 15:28:35.150 ,4,0,31.,4.8,1440.,4.8,0.,4.8,0.,4.8
1979-07-27 15:28:39.950 ,4,0,29.,4.8,1312.,4.8,0.,4.8,0.,4.8
1979-07-27 15:28:44.750 ,4,0,35.,4.8,1376.,4.8,0.,4.8,0.,4.8
1979-07-27 15:28:49.550 ,5,0,27.,4.8,1344.,4.8,0.,4.8,0.,4.8
1979-07-27 15:28:54.350 ,5,0,39.,4.8,1376.,4.8,0.,4.8,0.,4.8
1979-07-27 15:28:59.150 ,5,0,36.,4.8,1312.,4.8,0.,4.8,0.,4.8
1979-07-27 15:29:03.950 ,5,0,40.,4.8,1280.,4.8,0.,4.8,0.,4.8
1979-07-27 15:29:08.750 ,5,0,38.,4.8,1248.,4.8,0.,4.8,0.,4.8
1979-07-27 15:29:13.550 ,5,0,35.,4.8,1184.,4.8,0.,4.8,0.,4.8
1979-07-27 15:29:18.350 ,5,0,38.,4.8,1216.,4.8,0.,4.8,0.,4.8
1979-07-27 15:29:23.150 ,5,0,33.,4.8,1184.,4.8,0.,4.8,0.,4.8
1979-07-27 15:29:27.950 ,5,0,43.,4.8,1248.,4.8,0.,4.8,0.,4.8
1979-07-27 15:29:32.750 ,5,0,34.,4.8,1248.,4.8,0.,4.8,0.,4.8
1979-07-27 15:29:37.550 ,6,0,41.,4.8,1280.,4.8,0.,4.8,0.,4.8
1979-07-27 15:29:42.350 ,6,0,32.,4.8,1248.,4.8,0.,4.8,0.,4.8
1979-07-27 15:29:47.150 ,6,0,42.,4.8,1216.,4.8,0.,4.8,0.,4.8
1979-07-27 15:29:51.950 ,6,0,36.,4.8,1152.,4.8,0.,4.8,0.,4.8
1979-07-27 15:29:56.750 ,6,0,36.,4.8,1056.,4.8,0.,4.8,0.,4.8
1979-07-27 15:30:01.550 ,6,0,50.,4.8,1216.,4.8,0.,4.8,0.,4.8
1979-07-27 15:30:06.350 ,6,0,34.,4.8,1056.,4.8,0.,4.8,0.,4.8
1979-07-27 15:30:11.150 ,6,0,31.,4.8,1216.,4.8,0.,4.8,0.,4.8
1979-07-27 15:30:15.950 ,6,0,47.,4.8,1184.,4.8,0.,4.8,0.,4.8
1979-07-27 15:30:20.750 ,6,0,31.,4.8,1248.,4.8,0.,4.8,0.,4.8
1979-07-27 15:30:25.550 ,7,0,41.,4.8,1280.,4.8,0.,4.8,0.,4.8
1979-07-27 15:30:30.350 ,7,0,29.,4.8,1248.,4.8,0.,4.8,0.,4.8
1979-07-27 15:30:35.150 ,7,0,28.,4.8,1120.,4.8,0.,4.8,0.,4.8
1979-07-27 15:30:39.950 ,7,0,33.,4.8,1152.,4.8,0.,4.8,0.,4.8
1979-07-27 15:30:44.750 ,7,0,39.,4.8,1152.,4.8,0.,4.8,0.,4.8
1979-07-27 15:30:49.550 ,7,0,32.,4.8,1120.,4.8,0.,4.8,0.,4.8
1979-07-27 15:30:54.350 ,7,0,38.,4.8,1120.,4.8,0.,4.8,0.,4.8
1979-07-27 15:30:59.150 ,7,0,37.,4.8,1088.,4.8,0.,4.8,0.,4.8
1979-07-27 15:31:03.950 ,7,0,31.,4.8,1056.,4.8,0.,4.8,0.,4.8
1979-07-27 15:31:08.750 ,7,0,26.,4.8,1184.,4.8,0.,4.8,0.,4.8
1979-07-27 15:31:13.550 ,3,1,28.,4.8,1152.,4.8,0.,4.8,0.,4.8